Location: Bouchavesnes-Bergen
(49.9859°N, 2.9203°E)
Time: 00:46:24
(UTC+00:00)

IDEFIX/ARIANE 42P - Pass Details

Date: 25 June 2021
Orbit: 784 x 803 km, 98.4° (Epoch: 30 July)

Event Time Altitude Azimuth Distance (km) Brightness Sun altitude
Rises 02:36:05 0° 15° (NNE) 3,315 7.2 -8.0°
Reaches altitude 10° 02:38:26 10° 16° (NNE) 2,378 6.3 -7.8°
Maximum altitude 02:43:42 81° 104° (ESE) 809 2.7 -7.3°
Drops below altitude 10° 02:48:54 10° 192° (SSW) 2,348 4.5 -6.7°
Enters shadow 02:50:08 - 193° (SSW) 2,840 4.9 -6.6°
